Regional Weather Roundup
Issued by NWS Portland, ME

Home | Current Version | Previous Version | Text Only | Print | Product List | Glossary On
Versions: 1 2 3 4 5 6 7 8 9 10 11 12 13 14 15 16 17 18 19 20 21 22 23 24 25 26 27 28 29 30 31 32 33 34 35 36 37 38 39 40 41 42 43 44 45 46 47 48 49 50
000
ASUS41 KGYX 190410
RWRGYX
WEATHER ROUNDUP FOR MAINE AND NEW HAMPSHIRE
NATIONAL WEATHER SERVICE GRAY ME
1200 AM EDT FRI SEP 19 2014

MEZ002-005-006-010-012-015-018-020-021-024-026-027-029-190500-
MAINE

CITY           SKY/WX    TMP DP  RH WIND       PRES   REMARKS
PORTLAND       CLEAR     45  34  65 N8        30.17R
SANFORD        CLEAR     43  34  70 CALM      30.17R
BAR HARBOR     CLEAR     46  37  71 N5        30.14R
WISCASSET      CLEAR     46  33  60 VRB3      30.18R
ROCKLAND       CLEAR     46  32  57 N5        30.15R
FRYEBURG       CLEAR     42  33  70 NW6       30.18R
LEWISTONAUBURN CLEAR     45  32  61 N14       30.16R
AUGUSTA        CLEAR     44  32  62 N16       30.17R
WATERVILLE     CLEAR     41  28  60 N8        30.13R
BANGOR         CLEAR     39  31  72 CALM      30.16R
GREENVILLE     NOT AVBL
MILLINOCKET    CLEAR     38  30  73 NW3       30.16R
HOULTON        CLEAR     33  30  88 CALM      30.12R
PRESQUE ISLE   CLEAR     30  25  80 S3        30.11S
FRENCHVILLE    CLEAR     32  25  75 NW8       30.10R
CARIBOU        CLEAR     34  27  75 NW5       30.11R
$$

NHZ002-005-008-009-011-012-014-190500-
NEW HAMPSHIRE

CITY           SKY/WX    TMP DP  RH WIND       PRES   REMARKS
PORTSMOUTH     PTCLDY    50  38  63 N9        30.16R
ROCHESTER      CLEAR     44  36  73 N7        30.16R
NASHUA         CLEAR     51  40  66 NW8       30.17R
MANCHESTER     CLEAR     51  39  63 N8        30.16R
CONCORD        CLEAR     45  38  76 NW5       30.18R
LACONIA        CLEAR     43  37  81 W5        30.15S
PLYMOUTH       FAIR      37  37 100 CALM      30.17S
BERLIN         CLEAR     31  29  92 CALM      30.18R
WHITEFIELD     CLEAR     33  30  88 CALM      30.19R
JAFFREY        CLEAR     46  37  71 CALM      30.17R
LEBANON        CLEAR     37  33  85 CALM      30.18R
MT WASHINGTON  FOG       21  21 100 NW40        N/A  VSB 1/16WCI   1
$$

VTZ005-007-008-190500-
VERMONT

CITY           SKY/WX    TMP DP  RH WIND       PRES   REMARKS
ST JOHNSBURY     N/A     36  34  92 MISG      30.20R
MONTPELIER     PTCLDY    37  34  89 S3        30.24R
BURLINGTON     PTCLDY    43  33  68 N5        30.24R
$$

MAZ007-012-024-CTZ003-RIZ002-NYZ038-NYZ072-190500-
SOUTHERN NEW ENGLAND AND NY

CITY           SKY/WX    TMP DP  RH WIND       PRES   REMARKS
BOSTON         MOCLDY    57  41  55 N9        30.15R
WORCESTER      MOCLDY    50  43  77 N7        30.15R
NANTUCKET      CLOUDY    57  49  74 N3        30.07R
PROVIDENCE     MOCLDY    61  47  59 N15       30.12R
HARTFORD       PTCLDY    56  45  66 N10       30.14R
ALBANY         MOCLDY    51  41  68 N6        30.19R
NEW YORK CITY  PTCLDY    64  51  62 NE9       30.11R
$$

ANZ081-ANZ082-ANZ150-NHZ014-MEZ023>029-190500-
COASTAL MARINE OBSERVATIONS

STATION/POSITION TIME  TEMP    WIND        PRES    WAVE
                       AIR SEA DIR/SP/G            HT/PER
                 (UTC) (F)     (DEG/KT/KT) (MB)    (FT/S)
MATINICUS ROCK   0400          360/ 23/ 24 1020.0R
PORTLAND WX BUOY 0350   53 59   10/ 17/ 21 1020.8R   3/10
WELLS            0300   50 58  360/  4/  5 1020.1R
ISLE OF SHOALS   0400   54      20/ 22/ 24 1020.5R
JEFFREYS LEDGE   0321      62                N/A     5/10
CASHES LEDGE BUO 0350   54 59              1019.3R   5/ 5
$$

.............KEY..............
   WCI - WIND CHILL
   TC  - TEMPERATURE IN CELSIUS
   VSB - VISIBILITY IN MILES
   HX  - HEAT INDEX
   FAIR- INDICATES FEW OR NO CLOUDS BELOW 12,000 FT, WITH NO
         SIGNIFICANT WEATHER AND/OR OBSTRUCTIONS TO VISIBILITY.




USA.gov is the U.S. government's official web portal to all federal, state and local government web resources and services.